Location: Blackwall
(51.5097°N, 0.0016°W)
Time: 23:42:58
(UTC+00:00)

Cosmos 1898 Rocket - Pass Details

Date: 15 May 2026
Orbit: 749 x 778 km, 74.0° (Epoch: 9 June)

Event Time Altitude Azimuth Distance (km) Brightness Sun altitude
Rises 22:54:51 0° 334° (NNW) 3,217 8.3 -18.2°
Reaches altitude 10° 22:57:13 10° 332° (NNW) 2,291 7.2 -18.3°
Maximum altitude 23:02:24 75° 248° (WSW) 788 3.5 -18.5°
Enters shadow 23:04:35 35° 170° (S) 1,205 4.0 -18.5°
